#timestamp,LO_Frequency,Hit,StdDev 
1545015615.5,286046998.0,N
1545015635.4,286046995.8,Y
1545015655.2,286046995.4,P
1545015675.0,286046994.9,P
1545015675.9,286046994.9,P
1545015695.8,286046995.7,N
1545015715.6,286046997.9,N
1545015735.5,286046997.4,N
1545015755.3,286046997.0,N
1545015775.1,286046998.7,N
1545015795.9,286047000.7,N
1545015815.7,286046998.5,N
1545015835.6,286046998.4,N
1545015855.4,286046998.7,N
1545015875.2,286046997.7,N
1545015895.1,286046996.7,N
1545015896.0,286046996.7,N
1545015915.8,286046998.7,N
1545015935.7,286046999.6,N
1545015955.5,286046996.6,N
1545015975.3,286046996.6,N
1545015995.2,286046996.9,N
1545016015.9,286046999.6,N
1545016035.7,286046996.6,N
1545016055.6,286046999.0,N
1545016075.4,286047000.0,N
1545016095.3,286046998.5,N
1545016115.1,286046999.1,N
1545016116.0,286046999.1,N
1545016135.8,286046996.9,N
1545016155.7,286046996.5,N
1545016175.5,286046999.4,N
1545016195.3,286046999.3,N
1545016215.2,286046997.1,N
1545016235.0,286046997.2,N
1545016235.9,286046997.2,N
1545016255.8,286046999.0,N
1545016275.6,286046999.3,N
1545016295.5,286046999.1,N
1545016315.3,286046999.1,N
1545016335.1,286046997.5,N
1545016355.9,286046997.3,N
1545016405.8,286046997.1,E
1545016415.7,286046999.3,N
1545016435.5,286047000.6,P
1545016455.3,286047000.9,N
1545016475.2,286046998.3,N
1545016495.0,286046999.3,N
1545016495.9,286046999.3,N
1545016515.8,286046998.1,N
1545016535.6,286047000.2,N
1545016555.4,286047001.0,N
1545016575.3,286046998.9,N
1545016595.1,286046998.5,N
1545016615.9,286047000.9,N
1545016635.7,286046998.8,N
1545016655.5,286046998.8,N
1545016675.4,286046999.4,N
1545016695.2,286046999.0,N
1545016715.1,286046998.3,N
1545016716.0,286046998.3,N
1545016735.8,286046996.7,Y
1545016755.6,286046999.3,P
1545016775.5,286046997.0,P
1545016795.3,286046996.9,N
1545016815.2,286046996.5,N
1545016835.0,286046997.1,N
1545016835.9,286046997.1,N
1545016855.7,286046997.5,N
1545016875.6,286046995.2,Y
1545016895.4,286046999.3,P
1545016915.3,286046998.5,N
1545016935.1,286046998.6,N
1545016936.0,286046998.6,N
1545016955.8,286046998.3,Y
1545016975.7,286047000.9,P
1545016995.5,286046998.1,N
1545017015.4,286047000.8,N
1545017035.2,286046998.2,N
1545017055.0,286046999.0,N
1545017055.9,286046999.0,N
1545017075.8,286046998.2,N
1545017095.6,286046998.4,N
1545017115.4,286046999.3,N
1545017135.3,286046998.2,N
1545017155.1,286046998.7,N
1545017175.9,286047000.3,N
1545017195.7,286047001.1,N
1545017215.5,286047000.9,N
1545017235.4,286047000.3,N
1545017255.2,286047002.4,N
1545017275.1,286046999.9,N
1545017276.0,286046999.9,N
1545017295.8,286047001.1,N
1545017315.6,286047000.4,N
1545017335.5,286047002.7,N
1545017355.3,286046999.9,N
1545017375.1,286047000.5,N
1545017395.9,286047000.1,N
1545017415.7,286047000.4,N
1545017435.6,286046998.1,N
1545017455.4,286046998.8,N
1545017475.2,286046998.4,N
1545017495.1,286046996.5,N
1545017496.0,286046996.5,N
1545017515.8,286046996.9,N
1545017535.1,286046999.6,N
1545017555.9,286047000.7,N
1545017575.7,286047000.5,N
1545017595.6,286046998.1,N
1545017615.4,286047001.2,N
1545017635.2,286046999.3,N
1545017655.1,286046999.3,N
1545017656.0,286046999.3,N
1545017675.8,286046998.7,N
1545017695.7,286047000.3,N
1545017715.5,286046999.7,N
1545017735.3,286047000.1,N
1545017755.2,286047000.2,N
1545017775.0,286047000.2,N
1545017775.9,286047000.2,N
1545017795.7,286047001.1,N
1545017815.6,286046998.5,N
1545017835.4,286047000.0,N
1545017855.3,286046998.2,N
1545017875.1,286046998.8,N
1545017876.0,286046998.8,N
1545017895.8,286046998.4,N
1545017915.7,286046998.9,N
1545017935.5,286047000.8,N
1545017955.3,286047000.4,N
1545017975.2,286047000.2,N
1545017995.0,286047000.7,N
1545017995.9,286047000.7,N
1545018015.8,286047000.1,N
1545018035.6,286047001.0,N
1545018055.4,286047000.3,N
1545018075.3,286046999.9,N
1545018095.1,286047002.2,N
1545018115.8,286047002.1,N
1545018135.7,286046999.7,N
1545018155.5,286046999.9,N
1545018175.4,286047000.1,N
1545018195.2,286047000.1,N
1545018215.0,286047000.2,N
1545018215.9,286047000.2,N
1545018235.8,286047002.8,N
1545018255.6,286047001.8,N
1545018275.5,286047002.5,N
1545018295.3,286047002.1,N
1545018315.1,286047001.7,N
1545018335.9,286047001.4,N
1545018355.7,286047001.5,N
1545018375.5,286047003.9,Y
1545018395.4,286047004.0,P
1545018415.2,286047002.1,N
1545018435.1,286047001.5,N
1545018436.0,286047001.5,N
1545018455.8,286047004.2,Y
1545018475.6,286047002.1,P
1545018495.5,286047002.1,P
1545018515.3,286047000.2,N
1545018535.2,286047000.9,N
1545018555.9,286047000.8,N
1545018575.7,286047001.1,N
1545018595.6,286047000.2,N
1545018615.4,286047000.3,N
1545018635.2,286046998.1,N
1545018655.1,286047000.9,N
1545018656.0,286047000.9,N
1545018675.8,286047000.4,N
1545018695.7,286047002.3,N
1545018715.5,286047002.3,N
1545018735.3,286046999.8,N
1545018755.2,286047000.4,N
1545018775.0,286047000.3,N
1545018775.9,286047000.3,N
1545018795.8,286047000.2,N
1545018815.6,286047001.6,N
1545018835.4,286046999.8,N
1545018855.3,286046998.1,N
1545018875.1,286047000.9,N
1545018895.8,286047000.5,N
1545018915.7,286047000.2,N
1545018935.5,286047001.0,N
1545018955.4,286047000.9,N
1545018975.2,286047001.1,N
1545018995.0,286046998.9,N
1545018995.9,286046998.9,N
1545019015.8,286046999.4,N
1545019035.6,286046998.1,N
1545019055.4,286046998.3,N
1545019075.3,286046998.9,N
1545019095.1,286046998.9,N
1545019115.9,286047001.2,N
1545019135.7,286047000.3,N
1545019155.5,286047002.3,N
1545019175.4,286047002.7,N
1545019195.2,286047000.9,N
